STARLINK-11162, 60123

Orbit data source: Space-Track

STARLINK-11162, 60123 is a payload satellite owned by SpaceX/Seattle (US) in LEO that was launched on Mon, 24 Jun 2024 UTC via an FALCON 9 launch vehicle from the Air Force Western Test Range (AFWTR). Payload-class satellites include a variety of spacecraft equipped with specific instruments for various scientific and technological missions. These include communications satellites like Starlink; space stations such as the ISS; scientific satellites like the Hubble; Earth observation satellites from companies like Planet Labs, Umbra, and HawkEye 360; GPS; miniature CubeSats for education and research; and military/defense satellites.

Loading next visibility...
Identifier
60123, 2024-118L
Orbit
LEO
Country
Flag of USUS
Related business
Manufacturer
SpaceX/Seattle
Mission
Operational Commercial Communications
Bus & Motor
STARLINK V2MD, Unknown motor
Mass
960 kg wet, ~910 kg dry
Launch date (UTC)
2024-06-24 (2 years ago)
Launch vehicle
FALCON 9
Launch site
Air Force Western Test Range (AFWTR)
Object type
Payload
Rocket body
Debris
Shape & HBR
Box + 2 Pan, 18.1 m
Radar Cross Section
36.964 m², Large (>1 m²)

Expand to show TLE details & history
Last TLE update: 10 hours ago

TLE from 10 hours ago
0 STARLINK-11162
1 60123U 24118L   26126.85887959  .00023845  00000-0  20101-3 0  9993
2 60123  53.1581 294.1988 0000811  84.7826 275.3285 15.69721175107131
Epoch: 2026-05-06T20:36Z
TLE epoch observation values (Epoch: 2026-05-06T20:36:47.196Z)
Latitude
0.00002°
Longitude
120.28883°
Altitude
360.559 km
Speed
7.694 km/s
True Right ascension
19h 36m 47s
True Declination
0° 00' 00"
Sunlit
Object was in partial shadow at epoch
Visualization orbit readout
Latitude
Unknown
Longitude
Unknown
Altitude
Unknown
Speed
Unknown
Apparent Right ascension
Unknown
Apparent Declination
Unknown
Sunlit
N/A
Visualization observer readout
Local Sidereal Time
14:42:56
Azimuth
Unknown
Elevation
Unknown
Doppler factor
Unknown
Orbital elements
Apogee altitude
360.502 km
Perigee altitude
359.409 km
Semi-major axis
6,738.093 km
Eccentricity
0.00008
Inclination
53.1581°
RAAN
294.1988°
Arg. of periapsis
84.7826°
True anomaly
275.31925°
Mean anomaly
275.3285°
Eccentric anomaly
275.32387°
Mean motion
3.92408 °/min
Orbital period
91.74 mins
BSTAR
0.00020101
Loading maneuver chart data...
Computing Atmospheric mass density...
Loading historical data...
Loading historical data...
Loading historical data...
Loading historical data...
Loading historical data...
Loading historical data...
Loading historical data...

Documentation

Showing up to 5 results
|